This is the latest recevied weather packets stored in our database for station/object KD7AWQ. If no packets are shown the sender has not sent any weather packets the latest 10 day(s).
| Time | Temp. | Humidity | Pressure | Rain* | Wind** | Luminosity | Snow |
|---|---|---|---|---|---|---|---|
| 1788208021 | 22.78° C | 59% | 1191 hPa | 0 mm | - | 71 W/m² | - |
| 1788207715 | 23.89° C | 50% | 1190.9 hPa | 0 mm | - | 54 W/m² | - |
| 1788207415 | 24.44° C | 47% | 1191 hPa | 0 mm | - | 60 W/m² | - |
| 1788207109 | 24.44° C | 47% | 1190.8 hPa | 0 mm | - | 62 W/m² | - |
| 1788206805 | 24.44° C | 47% | 1190.8 hPa | 0 mm | - | 94 W/m² | - |
| 1788206505 | 25° C | 52% | 1190.8 hPa | 0 mm | - | 126 W/m² | - |
| 1788206201 | 25.56° C | 48% | 1190.7 hPa | 0 mm | - | 141 W/m² | - |
| 1788205895 | 25° C | 46% | 1190.6 hPa | 0 mm | - | 126 W/m² | - |
| 1788205591 | 25° C | 45% | 1190.4 hPa | 0 mm | - | 191 W/m² | - |
| 1788205286 | 25.56° C | 44% | 1190.5 hPa | 0 mm | - | 229 W/m² | - |
| 1788204980 | 25.56° C | 44% | 1190.4 hPa | 0 mm | - | 226 W/m² | - |
| 1788204676 | 25.56° C | 47% | 1190.8 hPa | 0 mm | - | 252 W/m² | - |
| 1788204371 | 25° C | 48% | 1190.9 hPa | 0 mm | - | 354 W/m² | - |
| 1788204066 | 25° C | 48% | 1190.8 hPa | 0 mm | - | 399 W/m² | - |
| 1788203762 | 25° C | 48% | 1190.7 hPa | 0 mm | - | 409 W/m² | - |
| 1788203457 | 25° C | 50% | 1190.8 hPa | 0 mm | - | 480 W/m² | - |
| 1788203153 | 25° C | 49% | 1190.6 hPa | 0 mm | - | 501 W/m² | - |
| 1788202851 | 25° C | 47% | 1190.7 hPa | 0 mm | - | 470 W/m² | - |
| 1788202547 | 25° C | 48% | 1190.9 hPa | 0 mm | - | 350 W/m² | - |
| 1788202243 | 25° C | 47% | 1190.6 hPa | 0 mm | - | 385 W/m² | - |
| 1788201942 | 25° C | 49% | 1190.6 hPa | 0 mm | - | 399 W/m² | - |
| 1788201638 | 25° C | 49% | 1190.7 hPa | 0 mm | - | 399 W/m² | - |
| 1788201337 | 25° C | 49% | 1190.8 hPa | 0 mm | - | 524 W/m² | - |
| 1788201037 | 24.44° C | 49% | 1190.7 hPa | 0 mm | - | 496 W/m² | - |
| 1788200731 | 24.44° C | 49% | 1190.6 hPa | 0 mm | - | 484 W/m² | - |
* Rain latest hour (hover to see other rain measurements)
** Current wind speed in m/s (hover to see current wind gust speed)